sim
Sign-in with your pilot id or email,
or register
Callsign
Passwort

Schedule Details

Flight Number: RYR9422 (2)
Departure: Pisa Galileo Galilei Airport (LIRP) at 12:50
Arrival: Fuerteventura Airport (GCFV) at 17:05
Route: Ryanair Passenger Schedule. Enter filed route here before submitting Pirep.

Weather Information
Getting current METAR information for LIRP 172215Z 22002KT CAVOK 20/19 Q1016 NOSIG
Getting current METAR information for GCFV 172230Z AUTO 03004KT 7000 NSC 24/20 Q1014

Schedule Frequency

Route Map